Jackpot

Texas Poker Multi Jackpot System

Kini Telah hadir Jackpot SUPER ROYAL FLUSH

Kini Telah hadir Jackpot 2000 (khusus table VIP keatas).

Ikutilah global jackpot yang tersedia di system kami, dengan system jackpot terbaru dan pertama di indonesia, anda dapat membeli jackpot dengan harga 100 rupiah saja dan menangkan hadiahnya hingga puluhan juta rupiah.

Jackpot bukanlah suatu keharusan untuk dibeli, namun kami memberikan suatu fitur tambahan untuk member tercinta dari www.kartupk.com.

Terdapat tiga pilihan harga jackpot yang bisa anda beli yaitu :100,500,1000 dan 2000(khusus table VIP Keatas) rupiah.

Hadiah dari Multi jackpot system www.kartupk.com

  1. full house x 10 harga jackpot yang anda beli.
      (contoh:anda membeli 1000 maka:1000 X10 = 10.000)
  2. four of kind x 250 harga jackpot yang anda beli
      (contoh:anda membeli 1000 maka:1000 X250 = 250.000)
  3. Straight flush x 1200
      (contoh:anda membeli 1000 maka:1000 X1200 = 1.200.000)
  4. Royal flush x 10000 harga jackpot yang anda beli
      (contoh:anda membeli 1000 maka:1000 X10000 = 10.000.000)
  5. SUPER ROYAL FLUSH x 30000 harga jackpot yang anda beli
      (contoh:anda membeli 1000 maka:1000 X30000 = 30.000.000)

Kondisi kartu

  1. full house adalah kondisi kartu dimana kartu anda dan kartu tengah dengan total 7 kartu bisa mendapatkan nilai 5 kartu dengan kombinasi 1 tris(three of kind) dan 1 pair, contoh 3 kartu 10 dan 2 kartu 5
  2. Four of kind adalah kondisi kartu dimana kartu anda dan kartu tengah dengan total 7 kartu bisa mendapatkan nilai 5 kartu dengan kombinasi 4 kartu yang sama jumlah dan 1 kartu apapun juga contoh anda mendapatkan 4 buah kartu angka 3 dan 1 kartu apapun.
  3. Staright flush adalah kondisi kartu dimana kartu anda dan kartu tengah dengan total 7 kartu bisa mendapatkan nilai 5 kartu dengan kombinasi seri / staright dengan kembang yang sama contoh : urutan kartu dari angka 5, 6, 7, 8 , 9 10 dengan kembang yg sama misalnya as hati
  4. Royal flush adalah kondisi kartu dimana kartu anda dan kartu tengah dengan total 7 kartu bisa mendapatkan nilai 5 kartu dengan kombinasi seri / staright dengan kembang yang sama tetapi kartu tersebut haruslah dimulai dari 10. contoh 10, Queen, Jack, King dan aces dengan kembang yang sama
  5. Super Royal flush adalah kondisi kartu dimana Kedua kartu anda digabung dengan 3 kartu pertama meja haruslah royal flush. contoh kartu anda 10,Queen kembang sama dan 3 kartu pertama meja adalah Jack, King dan aces dengan kembang yang sama

Demikian adalah penjelasan dari Multi Jackpot www.kartupk.com terima kasih dan selamat bermain salam hoki dari kami

Texas Poker Jackpot Winner

TOP SUPER ROYAL FLUSH
No.TanggalNamaPriceWin
120/10 21:38SENOPATI_7Super Royal flush6,000,000
220/10 20:17XMAX291Super Royal flush6,000,000
320/10 19:01GEONG1Super Royal flush6,000,000
420/10 15:40TANTEELISuper Royal flush6,000,000
520/10 13:12CIKIKA25Super Royal flush30,000,000
TOP ROYAL FLUSH
No.TanggalNamaPriceWin
121/10 02:13WINDYS20Royal flush10,000,000
221/10 01:50ALDINO212Royal flush5,000,000
321/10 01:35BOGEAL99Royal flush1,000,000
421/10 01:34HANDIRoyal flush2,000,000
521/10 01:32KINGCKCRoyal flush10,000,000
TOP STRAIGHT FLUSH
No.TanggalNamaPriceWin
121/10 02:55BGJALI31Straight Flush600,000
221/10 02:55AKBR11Straight Flush600,000
321/10 02:55POKERJJ0Straight Flush120,000
421/10 02:53STARWINS88Straight Flush240,000
521/10 02:52AMERICA7Straight Flush600,000
LATEST JACKPOT
No.TanggalNamaPriceWin
121/10 02:56SENTAKURFull House1,000
221/10 02:56JNT92Full House5,000
321/10 02:56SAKA31Full House5,000
421/10 02:56MOTO77Full House2,000
521/10 02:56MOZZAX27Full House5,000
621/10 02:56MUJUR098Full House1,000
721/10 02:56OCR58Full House2,000
821/10 02:56SAGUL999Full House10,000
921/10 02:56GOGOGO46Full House2,000
1021/10 02:56ASSSBLEHFull House10,000
1121/10 02:56WANMUK69Full House10,000
1221/10 02:56JUNAENAHFull House5,000
1321/10 02:56VANIA88Full House10,000
1421/10 02:56RALJACKPOTFour Of A Kind250,000
1521/10 02:56PHAKIFull House10,000
1621/10 02:56MAUPA13Full House20,000
1721/10 02:56FBPZ3E54UWFull House500
1821/10 02:56G0KILLOHFull House2,000
1921/10 02:56OH_MAY_GODFull House2,000
2021/10 02:55JOKOITILFull House10,000
2121/10 02:55JYCLYAE6LXFull House5,000
2221/10 02:55USEZLGF5NLFull House5,000
2321/10 02:55RAMADANI05Full House1,000
2421/10 02:55ARLAPIRFull House2,000
2521/10 02:55OKEYONOFull House2,000
2621/10 02:55PEKIUFull House5,000
2721/10 02:55BGJALI31Straight Flush600,000
2821/10 02:55ATABENG5Full House2,000
2921/10 02:55MASTER1990Full House500
3021/10 02:55CS_POKER66Full House5,000
3121/10 02:55ORMASTTFull House2,000
3221/10 02:55K3NYHAYFull House5,000
3321/10 02:55SADEKKKFull House1,000
3421/10 02:55ADUY90Full House2,000
3521/10 02:55E97D4729Full House5,000
3621/10 02:55BACHAN_Full House2,000
3721/10 02:55CDA1283FFour Of A Kind125,000
3821/10 02:55FCE2A57CFull House2,000
3921/10 02:55AM398Full House2,000
4021/10 02:55DEL96Full House5,000
4121/10 02:55RIOSEPTIAFull House1,000
4221/10 02:55AKBR11Straight Flush600,000
4321/10 02:55KAPATRA27Full House1,000
4421/10 02:55DENJECKFull House1,000
4521/10 02:55OH_MAY_GODFull House2,000
4621/10 02:55P3RJUAN6Full House1,000
4721/10 02:55TEMPEBAUK2Full House1,000
4821/10 02:55BA_ROKAHFull House10,000
4921/10 02:55SIMPATISSSFull House1,000
5021/10 02:55HELENC0KFull House5,000

Domino Multi Jackpot System

Ikutilah global jackpot yang tersedia di system kami, dengan system jackpot terbaru dan pertama di indonesia, anda dapat membeli jackpot dengan harga 100 rupiah saja dan menangkan hadiahnya hingga puluhan juta rupiah.

Jackpot bukanlah suatu keharusan untuk dibeli, namun kami memberikan suatu fitur tambahan untuk member tercinta dari www.kartupk.com.

Terdapat tiga pilihan harga jackpot yang bisa anda beli yaitu :100,500 dan 1000 rupiah.

Hadiah dari Multi jackpot system www.kartupk.com

  1. Murni Kecil x 50 harga jackpot yang anda beli.
      (contoh:anda membeli 1000 maka:1000 X 50 = 50.000)
  2. Murni Besar x 50 harga jackpot yang anda beli
      (contoh:anda membeli 1000 maka:1000 X 50 = 50.000)
  3. BALAK x 100 harga jackpot yang anda beli
      (contoh:anda membeli 1000 maka:1000 X 100 = 100.000)
  4. ENAM DEWA x 6666 harga jackpot yang anda beli
      (contoh:anda membeli 1000 maka:1000 X 6666 = 6.666.000)

Demikian adalah penjelasan dari Multi Jackpot www.kartupk.com terima kasih dan selamat bermain salam hoki dari kami

Domino Jackpot Winner

TOP ENAM DEWA
No.TanggalNamaPriceWin
121/10 02:13YADAH88murni enam6,666,000
221/10 01:06ZAHRAN505murni enam666,600
321/10 00:54SAMWIRmurni enam6,666,000
420/10 23:36LB881007murni enam666,600
520/10 23:33BEJOKOBRAmurni enam6,666,000
TOP BALAK
No.TanggalNamaPriceWin
121/10 02:56VANBOSKA98balak100,000
221/10 02:52CHUYYONKKbalak100,000
321/10 02:49MUWELbalak50,000
421/10 02:48NOKIA160balak10,000
521/10 02:40ZZZXXX2525balak50,000
LATEST JACKPOT
No.TanggalNamaPriceWin
121/10 02:56VANBOSKA98balak100,000
221/10 02:56KIYAI25murni kecil5,000
321/10 02:55TSALAMA71murni kecil25,000
421/10 02:54BRAANK_KASmurni besar5,000
521/10 02:53AAWLABEN73murni kecil50,000
621/10 02:52BERDARAmurni kecil25,000
721/10 02:52CHUYYONKKbalak100,000
821/10 02:52SOJINDmurni besar25,000
921/10 02:51SOLJUS88murni kecil25,000
1021/10 02:51CUPLIS04murni besar25,000
1121/10 02:50HENDRA012lucky992,500
1221/10 02:50HOK1NI4Nmurni kecil25,000
1321/10 02:50ZASCIA09murni besar5,000
1421/10 02:49SOPOASUmurni kecil5,000
1521/10 02:49MUWELbalak50,000
1621/10 02:48AJI8894murni besar5,000
1721/10 02:48DELFIANTOmurni besar50,000
1821/10 02:48NOKIA160balak10,000
1921/10 02:48RSUD87murni kecil50,000
2021/10 02:47RJA87murni kecil50,000
2121/10 02:47ACHONK103murni kecil5,000
2221/10 02:46LODOKSmurni kecil50,000
2321/10 02:46SOJINDmurni kecil25,000
2421/10 02:46CUNONG1926murni besar25,000
2521/10 02:45OPTIKmurni kecil50,000
2621/10 02:43JEV2707murni besar25,000
2721/10 02:43KIMTAN9999murni besar50,000
2821/10 02:42IMUUT17murni kecil25,000
2921/10 02:42ZURA1308murni besar50,000
3021/10 02:42CH1KKY1murni kecil5,000
3121/10 02:41RAMARAAMmurni besar25,000
3221/10 02:41D3011AAAmurni besar50,000
3321/10 02:40ZASCIA09murni kecil5,000
3421/10 02:40ZZZXXX2525balak50,000
3521/10 02:40B402A890murni besar50,000
3621/10 02:39ARGIYAK1murni kecil50,000
3721/10 02:39DELVI001lucky9910,000
3821/10 02:39RATTIH99murni besar5,000
3921/10 02:39BREAK8888murni besar25,000
4021/10 02:38IIN10murni besar50,000
4121/10 02:37RASKAL90murni besar50,000
4221/10 02:37KAPTENSTYLmurni besar5,000
4321/10 02:35YUDI190murni besar50,000
4421/10 02:35MMODUSbalak100,000
4521/10 02:34JONI123456murni kecil50,000
4621/10 02:34FHAREL06murni besar25,000
4721/10 02:34MARNOOKmurni kecil50,000
4821/10 02:34M3D1ATORmurni besar50,000
4921/10 02:33FRANZA1murni besar5,000
5021/10 02:33HAMA212murni besar50,000

Ceme Multi Jackpot System

Jackpot dilihat dari gabungan kartu pemain dengan kartu bandar. Bandar harus membeli jackpot sebanyak jumlah player yang sedang duduk. Sebagai contoh bila terdapat 3 pemain duduk bermain, dan bandar memutuskan untuk membeli jackpot Rp 1.000, maka pada periode tersebut bandar akan membeli jackpot sebanyak 3xRp1.000 = Rp3.000.

Jackpot bukanlah suatu keharusan untuk dibeli, namun kami memberikan suatu fitur tambahan untuk member tercinta dari www.kartupk.com.

Terdapat tiga pilihan harga jackpot yang bisa anda beli yaitu :100,500 dan 1000 rupiah.

Hadiah dari Multi jackpot system www.kartupk.com

  1. Murni Kecil x 50 harga jackpot yang anda beli.
      (contoh:anda membeli 1000 maka:1000 X 50 = 50.000)
  2. Murni Besar x 50 harga jackpot yang anda beli
      (contoh:anda membeli 1000 maka:1000 X 50 = 50.000)
  3. BALAK x 200 harga jackpot yang anda beli
      (contoh:anda membeli 1000 maka:1000 X 200 = 200.000)
  4. ENAM DEWA x 6666 harga jackpot yang anda beli
      (contoh:anda membeli 1000 maka:1000 X 6666 = 6.666.000)

Demikian adalah penjelasan dari Multi Jackpot www.kartupk.com terima kasih dan selamat bermain salam hoki dari kami

Ceme Jackpot Winner

TOP ENAM DEWA
No.TanggalNamaPriceWin
121/10 02:30HRPSWmurni enam666,600
221/10 02:30SAXTUWELLmurni enam6,666,000
321/10 02:30BOBMDW88murni enam666,600
421/10 02:05J1E2GIKD96murni enam6,666,000
521/10 01:43MENDHEM46murni enam6,666,000
TOP BALAK
No.TanggalNamaPriceWin
121/10 02:56MENDHEM46balak200,000
221/10 02:55RAID300balak200,000
321/10 02:55KILUKQQbalak200,000
421/10 02:55BORJU799balak20,000
521/10 02:54VR1123balak20,000
LATEST JACKPOT
No.TanggalNamaPriceWin
121/10 02:56SPAKET200murni besar5,000
221/10 02:56MENDHEM46balak200,000
321/10 02:56NAYA555murni kecil50,000
421/10 02:56DH2016murni kecil50,000
521/10 02:56F72F0757murni kecil5,000
621/10 02:55RAID300balak200,000
721/10 02:55KILUKQQbalak200,000
821/10 02:55DAMNARTmurni kecil5,000
921/10 02:55BORJU799balak20,000
1021/10 02:55KIAUKUI_1murni kecil25,000
1121/10 02:55VB9LMQYKOJmurni kecil5,000
1221/10 02:55NARIKBOS45murni kecil50,000
1321/10 02:55STROMP007murni kecil50,000
1421/10 02:55IYANK33murni besar5,000
1521/10 02:54BNGJR22murni kecil50,000
1621/10 02:54KAGEROmurni besar50,000
1721/10 02:54BEIJING847murni besar50,000
1821/10 02:54ASEP557murni besar50,000
1921/10 02:54MOCHROFIIHmurni kecil50,000
2021/10 02:54L77BROYEmurni kecil25,000
2121/10 02:54REZTU92murni kecil50,000
2221/10 02:54VR1123balak20,000
2321/10 02:54BGNOVImurni kecil25,000
2421/10 02:54SEWODbalak20,000
2521/10 02:54QIPLY88balak200,000
2621/10 02:54ALEN15murni besar50,000
2721/10 02:54DWBTOWO720murni besar25,000
2821/10 02:54KHUSNANbalak20,000
2921/10 02:53THEBES9murni besar25,000
3021/10 02:53APIN711murni besar50,000
3121/10 02:53PRASSKEZPEbalak20,000
3221/10 02:52HEMAT17balak200,000
3321/10 02:52MROMLY12murni besar25,000
3421/10 02:52GEMAMAmurni kecil25,000
3521/10 02:52BGOYOmurni kecil50,000
3621/10 02:52JULIDAYmurni kecil5,000
3721/10 02:52KEMKS6B14Tmurni besar25,000
3821/10 02:52RONY_97murni besar25,000
3921/10 02:52HRPSWmurni kecil50,000
4021/10 02:52AKIA9murni kecil50,000
4121/10 02:52PRABOTANmurni kecil50,000
4221/10 02:52KOPROXXXmurni kecil50,000
4321/10 02:52ZAQI12murni kecil5,000
4421/10 02:51OLENGJOmurni kecil50,000
4521/10 02:51OZSEL32murni kecil5,000
4621/10 02:51WWNBUDIMANmurni kecil5,000
4721/10 02:51CORAZOENmurni kecil25,000
4821/10 02:51NANGAM99murni kecil50,000
4921/10 02:51SEWODmurni kecil5,000
5021/10 02:51QIPLY88murni kecil50,000
Dewa.FM